logo tempoitalia

Diretta Meteo Warroad Intl-Swede Carlston Fld, Stati Uniti (USA)lunedì 31 agosto ore 01:35

Mappa
Sereno 19 °C Coperto 24 Ore: T.min 16 T.max 24
Ponente Sud/Sud-Est Km/h 20.3 Punto di rugiada: 17 °C Umidità: 88% Visibilità: 10 Km
Il sole sorge alle: 06:37 Il sole tramonta alle: 20:06
31 Agosto 2026 01:35 tempo osservato: Coperto Coperto 19 88 1006 vento: Nord S/SE 20.3
31 Agosto 2026 01:15 tempo osservato: Coperto Coperto 19 88 1006 vento: Nord SE 18.5
31 Agosto 2026 00:55 tempo osservato: Coperto Coperto 19 88 1006 vento: Nord SE 20.3
31 Agosto 2026 00:35 tempo osservato: Coperto Coperto 18 93 1006 vento: Nord SE 22.2
31 Agosto 2026 00:15 tempo osservato: Coperto Coperto 19 88 1007 vento: Nord E/SE 16.7
30 Agosto 2026 23:55 tempo osservato: Pioviggine Pioviggine 19 88 1007 vento: Nord E/SE 16.7
30 Agosto 2026 23:35 tempo osservato: Pioviggine Pioviggine 19 93 1007 vento: Nord E/SE 20.3
30 Agosto 2026 23:15 tempo osservato: Temporale nelle vicinanze Temporale nelle vicinanze 19 93 1008 vento: Nord E/SE 18.5
30 Agosto 2026 22:55 tempo osservato: Pioggia Pioggia 19 93 1008 vento: Nord E/SE 18.5
30 Agosto 2026 22:35 tempo osservato: Pioggia Pioggia 20 88 1008 vento: Nord E/SE 13
30 Agosto 2026 22:15 tempo osservato: Molto Nuvoloso Molto Nuvoloso 20 88 1009 vento: Nord E/SE 18.5
30 Agosto 2026 21:55 tempo osservato: Nuvoloso Nuvoloso 20 88 1009 vento: Nord SE 16.7
30 Agosto 2026 21:35 tempo osservato: Sereno Sereno 21 82 1009 vento: Nord E/SE 16.7
30 Agosto 2026 21:15 tempo osservato: Nuvoloso Nuvoloso 21 82 1008 vento: Nord E 20.3
30 Agosto 2026 20:55 tempo osservato: Nuvoloso Nuvoloso 21 88 1009 vento: Nord E 14.8
30 Agosto 2026 20:35 tempo osservato: Sereno Sereno 21 88 1009 vento: Nord E 16.7
30 Agosto 2026 20:15 tempo osservato: Sereno Sereno 21 88 1009 vento: Nord E 18.5
30 Agosto 2026 19:55 tempo osservato: Sereno Sereno 21 88 1009 vento: Nord E 14.8
30 Agosto 2026 19:35 tempo osservato: Nuvoloso Nuvoloso 22 83 1009 vento: Nord E 14.8
30 Agosto 2026 19:15 tempo osservato: Nuvoloso Nuvoloso 22 83 1009 vento: Nord E/SE 14.8
30 Agosto 2026 18:55 tempo osservato: Sereno Sereno 22 83 1009 vento: Nord E/SE 16.7
30 Agosto 2026 18:35 tempo osservato: Sereno Sereno 22 83 1009 vento: Nord E/SE 20.3
30 Agosto 2026 18:15 tempo osservato: Sereno Sereno 23 78 1009 vento: Nord E/SE 18.5
30 Agosto 2026 17:55 tempo osservato: Sereno Sereno 23 78 1009 vento: Nord E/SE 16.7
30 Agosto 2026 17:35 tempo osservato: Sereno Sereno 23 78 1010 vento: Nord E/SE 20.3
30 Agosto 2026 17:15 tempo osservato: Sereno Sereno 23 78 1010 vento: Nord E 14.8
30 Agosto 2026 16:55 tempo osservato: Sereno Sereno 23 78 1010 vento: Nord E/SE 16.7
30 Agosto 2026 16:35 tempo osservato: Sereno Sereno 23 78 1010 vento: Nord E 14.8
30 Agosto 2026 16:15 tempo osservato: Sereno Sereno 23 78 1011 vento: Nord E 16.7
30 Agosto 2026 15:55 tempo osservato: Sereno Sereno 24 73 1011 vento: Nord E/SE 16.7
30 Agosto 2026 15:35 tempo osservato: Sereno Sereno 23 78 1011 vento: Nord E 16.7
30 Agosto 2026 15:15 tempo osservato: Sereno Sereno 23 78 1011 vento: Nord E 14.8
30 Agosto 2026 14:55 tempo osservato: Sereno Sereno 22 83 1011 vento: Nord E 16.7
30 Agosto 2026 14:35 tempo osservato: Sereno Sereno 22 83 1011 vento: Nord E 14.8
30 Agosto 2026 14:15 tempo osservato: Sereno Sereno 22 83 1011 vento: Nord E 14.8
30 Agosto 2026 13:55 tempo osservato: Sereno Sereno 21 82 1011 vento: Nord E 16.7
30 Agosto 2026 13:35 tempo osservato: Sereno Sereno 21 82 1011 vento: Nord E 18.5
30 Agosto 2026 13:15 tempo osservato: Pioggia Pioggia 22 78 1011 vento: Nord E 16.7
30 Agosto 2026 12:55 tempo osservato: Sereno Sereno 21 82 1011 vento: Nord E 16.7
30 Agosto 2026 12:35 tempo osservato: Sereno Sereno 21 82 1012 vento: Nord E 13
30 Agosto 2026 12:15 tempo osservato: Sereno Sereno 21 82 1012 vento: Nord E 14.8
30 Agosto 2026 11:55 tempo osservato: Sereno Sereno 21 82 1012 vento: Nord E 16.7
30 Agosto 2026 11:35 tempo osservato: Sereno Sereno 21 82 1012 vento: Nord E 18.5
30 Agosto 2026 11:15 tempo osservato: Nuvoloso Nuvoloso 21 82 1012 vento: Nord E 18.5
30 Agosto 2026 10:55 tempo osservato: Sereno Sereno 20 88 1012 vento: Nord E 14.8
30 Agosto 2026 10:35 tempo osservato: Sereno Sereno 20 88 1012 vento: Nord E 14.8
30 Agosto 2026 10:15 tempo osservato: Sereno Sereno 19 93 1012 vento: Nord E 14.8
30 Agosto 2026 09:55 tempo osservato: Sereno Sereno 19 93 1012 vento: Nord E 13
30 Agosto 2026 09:35 tempo osservato: Sereno Sereno 19 93 1012 vento: Nord E/SE 11.1
30 Agosto 2026 09:15 tempo osservato: Sereno Sereno 19 88 1012 vento: Nord E/SE 13
30 Agosto 2026 08:55 tempo osservato: Sereno Sereno 19 93 1012 vento: Nord E 13
30 Agosto 2026 08:35 tempo osservato: Nuvoloso Nuvoloso 18 93 1012 vento: Nord E/SE 13
30 Agosto 2026 08:15 tempo osservato: Nuvoloso Nuvoloso 18 93 1012 vento: Nord E/SE 9.3
30 Agosto 2026 07:55 tempo osservato: Sereno Sereno 18 93 1012 vento: Nord E/SE 9.3
30 Agosto 2026 07:35 tempo osservato: Nuvoloso Nuvoloso 18 93 1012 vento: Nord SE 9.3
30 Agosto 2026 07:15 tempo osservato: Nuvoloso Nuvoloso 18 93 1012 vento: Nord SE 11.1
30 Agosto 2026 06:55 tempo osservato: Sereno Sereno 18 93 1012 vento: Nord E/SE 9.3
30 Agosto 2026 06:35 tempo osservato: Sereno Sereno 17 100 1012 vento: Nord E/SE 9.3
30 Agosto 2026 06:15 tempo osservato: Sereno Sereno 17 100 1011 vento: Nord E/SE 7.4
30 Agosto 2026 05:55 tempo osservato: Sereno Sereno 17 100 1011 vento: Nord N 5.5
30 Agosto 2026 05:35 tempo osservato: Sereno Sereno 17 93 1011 vento: Nord E/SE 7.4
30 Agosto 2026 05:15 tempo osservato: Foschia Foschia 17 93 1011 vento: Nord N 5.5
30 Agosto 2026 04:55 tempo osservato: Foschia Foschia 17 93 1012 vento: Nord N 0
30 Agosto 2026 04:35 tempo osservato: Foschia Foschia 16 100 1012 vento: Nord N 5.5
30 Agosto 2026 04:15 tempo osservato: Sereno Sereno 17 93 1012 vento: Nord N 5.5
30 Agosto 2026 03:55 tempo osservato: Sereno Sereno 16 100 1012 vento: Nord N 0
30 Agosto 2026 03:35 tempo osservato: Sereno Sereno 16 100 1011 vento: Nord N 0
30 Agosto 2026 03:15 tempo osservato: Nuvoloso Nuvoloso 16 100 1012 vento: Nord N 0
30 Agosto 2026 02:55 tempo osservato: Foschia Foschia 16 93 1011 vento: Nord N 0
30 Agosto 2026 02:35 tempo osservato: Sereno Sereno 16 93 1012 vento: Nord N 0
30 Agosto 2026 02:15 tempo osservato: Foschia Foschia 16 100 1012 vento: Nord N 0
30 Agosto 2026 01:55 tempo osservato: Sereno Sereno 18 93 1011 vento: Nord N 0
30 Agosto 2026 01:35 tempo osservato: Foschia Foschia 17 93 1011 vento: Nord N 0